This is the latest recevied weather packets stored in our database for station/object I2HLY-4. If no packets are shown the sender has not sent any weather packets the latest 10 day(s).
| Time | Temp. | Humidity | Pressure | Rain* | Wind** | Luminosity | Snow |
|---|---|---|---|---|---|---|---|
| 1777446140 | 10° C | 97% | 1018.8 hPa | 0 mm | - | - | - |
| 1777445239 | 10° C | 97% | 1018.6 hPa | 0 mm | - | - | - |
| 1777444341 | 9.44° C | 97% | 1018.4 hPa | 0 mm | - | - | - |
| 1777443441 | 9.44° C | 97% | 1018.4 hPa | 0 mm | - | - | - |
| 1777442541 | 8.89° C | 97% | 1018.3 hPa | 0 mm | - | - | - |
| 1777441644 | 8.89° C | 97% | 1018.4 hPa | 0 mm | - | - | - |
| 1777440740 | 8.89° C | 97% | 1018.3 hPa | 0 mm | - | - | - |
| 1777439842 | 8.89° C | 96% | 1018.2 hPa | 1.02 mm | - | - | - |
| 1777438939 | 8.89° C | 97% | 1018.2 hPa | 1.02 mm | - | - | - |
| 1777438039 | 8.89° C | 96% | 1018.2 hPa | 1.02 mm | - | - | - |
| 1777437142 | 8.89° C | 96% | 1018.3 hPa | 2.03 mm | - | - | - |
| 1777436242 | 8.89° C | 96% | 1018.3 hPa | 1.02 mm | - | - | - |
| 1777435344 | 8.89° C | 96% | 1018.2 hPa | 1.02 mm | - | - | - |
| 1777434445 | 8.89° C | 96% | 1018.2 hPa | 5.08 mm | - | - | - |
| 1777433546 | 9.44° C | 96% | 1018.3 hPa | 5.08 mm | - | - | - |
| 1777432632 | 8.89° C | 96% | 1018.4 hPa | 6.1 mm | - | - | - |
| 1777431732 | 9.44° C | 97% | 1018.5 hPa | 6.1 mm | - | - | - |
| 1777430840 | 9.44° C | 97% | 1018.6 hPa | 4.06 mm | - | - | - |
| 1777429938 | 9.44° C | 97% | 1018.5 hPa | 6.1 mm | - | - | - |
| 1777429035 | 9.44° C | 96% | 1018.3 hPa | 8.89 mm | - | - | - |
| 1777428140 | 9.44° C | 96% | 1018.3 hPa | 12.95 mm | - | - | - |
| 1777427238 | 8.89° C | 96% | 1018.5 hPa | 16 mm | - | - | - |
| 1777426339 | 9.44° C | 96% | 1018.6 hPa | 17.02 mm | - | - | - |
| 1777425444 | 9.44° C | 96% | 1018.7 hPa | 18.03 mm | - | - | - |
| 1777424544 | 10° C | 96% | 1018.6 hPa | 16 mm | - | - | - |
* Rain latest hour (hover to see other rain measurements)
** Current wind speed in m/s (hover to see current wind gust speed)